Flag for Poland Weather past 2 weeks in Gdańsk, Poland

Now
34 °F

Passing clouds.


Feels Like: 30 °F
Forecast: 38 / 45 °F
Wind: 5 mph from South

Location: Gdansk-Rebiechowo

Current Time: Mar 1, 2015 at 2:15:37 AM

Latest Report: Mar 1, 2015 at 2:00 AM


Visibility: N/A

Pressure: 29.95 "Hg

Humidity: 93%

Dew point: 32 °F

Location of GdańskLocation

Historic Weather in Gdańsk — Graph

°F

Gdańsk temperature yesterday

Maximum temperature yesterday: 45 °F (at 12:00 PM)
Minimum temperature yesterday: 36 °F (at 6:00 PM)
Average temperature yesterday: 39 °F

Past Weeks' High & Low Weather Summary

 TemperatureHumidityPressure
High48 °F (Feb 21, 1:00 PM)100% (Feb 14, 1:00 AM)30.54 "Hg (Feb 14, 1:00 AM)
Low19 °F (Feb 14, 4:30 AM)43% (Feb 21, 1:00 PM)29.39 "Hg (Feb 21, 2:00 PM)
Average36 °F80%30.02 "Hg
* Reported Feb 14 1:00 AM — Mar 1 1:00 AM, Gdańsk, Weather by CustomWeather, © 2015

Note: Actual official high and low records may vary slightly from our data, if they occured in-between our weather recording intervals... More about our weather records

Advertising

Gdańsk weather history for previous 24 hours

 ConditionsComfort  
Time TempWeatherWind HumidityBarometerVisibility
1:00 AM
Sun, Mar 1
36 °FPassing clouds.3 mph87%29.98 "HgN/A
12:30 AM36 °FPassing clouds.5 mph87%29.98 "HgN/A
12:00 AM36 °FPassing clouds.3 mph87%29.98 "HgN/A
11:30 PM
Sat, Feb 28
37 °FPassing clouds.3 mph87%29.98 "HgN/A
11:00 PM36 °FPassing clouds.3 mph93%30.01 "HgN/A
10:30 PM36 °FPassing clouds.3 mph93%30.01 "HgN/A
10:00 PM36 °FPassing clouds.2 mph93%30.01 "HgN/A
9:30 PM36 °FPassing clouds.3 mph93%30.01 "Hg5 mi
9:00 PM36 °FPassing clouds.6 mph93%30.01 "Hg5 mi
8:30 PM36 °FPassing clouds.5 mph93%30.01 "Hg4 mi
8:00 PM36 °FFog.7 mph93%30.01 "Hg2 mi
7:30 PM36 °FFog.8 mph93%30.01 "Hg2 mi
7:00 PM36 °FFog.7 mph93%30.01 "Hg2 mi
6:30 PM36 °FFog.6 mph100%30.01 "Hg1 mi
6:00 PM36 °FFog.13 mph100%30.01 "Hg1 mi
5:30 PM39 °FFog.13 mph87%30.01 "Hg1 mi
5:00 PM43 °FFog.5 mph81%29.98 "Hg2 mi
4:30 PM45 °FPassing clouds.3 mph71%29.98 "Hg4 mi
4:00 PM45 °FFog.3 mph76%29.98 "Hg3 mi
3:30 PM45 °FFog.5 mph76%29.98 "Hg2 mi
3:00 PM45 °FFog.7 mph76%29.98 "Hg3 mi
2:30 PM45 °FFog.6 mph81%29.98 "Hg2 mi
2:00 PM45 °FFog.7 mph81%29.98 "Hg2 mi
1:30 PM45 °FFog.8 mph81%29.98 "Hg2 mi
1:00 PM45 °FFog.6 mph81%29.98 "Hg2 mi
12:30 PM45 °FFog.5 mph81%29.98 "Hg2 mi
12:00 PM45 °FFog.5 mph81%29.98 "Hg2 mi
11:30 AM43 °FFog.3 mph93%29.98 "Hg2 mi
11:00 AM43 °FFog.3 mph93%29.98 "Hg2 mi
10:30 AM41 °FFog.2 mph93%29.98 "Hg1 mi
10:00 AM41 °FFog.2 mph93%29.98 "Hg1 mi
9:30 AM39 °FFog.1 mph100%29.98 "Hg1 mi
9:00 AM39 °FFog.2 mph100%29.98 "Hg1 mi
8:30 AM39 °FPassing clouds.No wind93%29.98 "Hg1 mi
8:00 AM37 °FFog.1 mph100%29.98 "Hg1 mi
7:30 AM37 °FFog.1 mph100%29.98 "Hg1 mi
7:00 AM37 °FFog.1 mph100%29.98 "Hg1 mi
6:30 AM37 °FFog.2 mph93%29.98 "Hg1 mi
6:00 AM37 °FFog.1 mph93%29.95 "Hg1 mi
5:30 AM37 °FFog.2 mph93%29.95 "Hg1 mi
5:00 AM37 °FFog.2 mph93%29.95 "Hg2 mi
4:30 AM37 °FFog.2 mph100%29.95 "Hg2 mi
4:00 AM37 °FFog.1 mph100%29.95 "Hg2 mi
3:30 AM37 °FFog.1 mph100%29.98 "Hg2 mi
3:00 AM37 °FFog.No wind100%29.98 "Hg2 mi
2:30 AM37 °FFog.2 mph100%29.98 "Hg2 mi
2:00 AM37 °FFog.1 mph93%29.98 "Hg2 mi
Weather by CustomWeather, © 2015

See weather overviewHow to use our weather pages